Location: Warner Observatory
(35.1353°N, 89.5455°W)
Time: 04:39:12
(UTC-06:00)

N. Korean satellite - Visible Passes

Search period start: 28 January 2020 00:00
Search period end: 07 February 2020 00:00
Orbit: 454 x 507 km, 97.2° (Epoch: 27 January)

Date Brightness Start Highest point End Pass type
(mag) Time Alt. Az. Time Alt. Az. Time Alt. Az.
28 Jan 9.8 04:49:07 10° ENE 04:51:14 15° E 04:53:19 10° SE visible
28 Jan 7.5 06:21:31 10° NNW 06:24:35 26° WNW 06:27:40 10° SW visible
29 Jan 6.5 05:55:37 10° N 05:59:11 61° WNW 06:02:48 10° SSW visible
29 Jan 10.0 18:03:02 10° WSW 18:04:39 13° W 18:06:16 10° WNW visible
30 Jan 7.3 05:30:08 10° NNE 05:33:43 55° E 05:37:19 10° S visible
31 Jan 9.0 05:05:08 10° NE 05:08:10 24° E 05:11:12 10° SSE visible
01 Feb 10.1 04:41:16 10° ENE 04:42:32 11° E 04:43:47 10° ESE visible
01 Feb 7.2 06:12:39 10° N 06:15:59 34° WNW 06:19:21 10° SW visible
02 Feb 6.5 05:46:54 10° N 05:50:33 81° WNW 05:54:14 10° SSW visible
02 Feb 9.8 17:53:38 10° SW 17:55:55 17° W 17:58:13 10° NW visible
03 Feb 7.9 05:21:33 10° NNE 05:25:04 42° E 05:28:34 10° S visible
04 Feb 9.5 04:56:46 10° NE 04:59:28 19° E 05:02:11 10° SE visible
05 Feb 6.9 06:03:50 10° N 06:07:22 45° WNW 06:10:54 10° SSW visible
06 Feb 6.8 05:38:13 10° NNE 05:41:55 76° ESE 05:45:37 10° S visible
